Location: De Greiden
(52.9496°N, 5.9137°E)
Time: 22:52:39
(UTC+00:00)

Meteor 2-15 Rocket - Pass Details

Date: 24 January 2021
Orbit: 940 x 955 km, 82.5° (Epoch: 01 March)

Event Time Altitude Azimuth Distance (km) Brightness Sun altitude
Rises 18:05:28 0° 350° (N) 3,647 7.5 -17.6°
Reaches altitude 10° 18:08:03 10° 355° (N) 2,698 6.8 -18.0°
Maximum altitude 18:14:07 55° 73° (ENE) 1,148 4.5 -18.9°
Drops below altitude 10° 18:20:07 10° 150° (SSE) 2,681 6.6 -19.8°
Sets 18:22:40 0° 155° (SSE) 3,621 7.3 -20.2°
